#timestamp,LO_Frequency,Hit,StdDev 
1577055615.8,286047000.3,N
1577055635.7,286047001.9,N
1577055655.5,286047005.7,N
1577055675.3,286047007.2,N
1577055695.2,286047005.2,N
1577055715.0,286047006.0,N
1577055715.9,286047006.0,N
1577055735.7,286047003.9,N
1577055755.6,286047000.3,N
1577055775.4,286047001.9,N
1577055795.3,286047002.7,N
1577055815.1,286047000.1,N
1577055835.8,286047001.6,N
1577055855.7,286047004.0,N
1577055875.5,286047000.3,N
1577055895.4,286047000.5,N
1577055915.2,286047000.3,N
1577055935.0,286047000.2,N
1577055935.9,286047000.2,N
1577055955.8,286046998.3,N
1577055975.6,286047001.2,N
1577055995.4,286046999.5,N
1577056015.3,286046998.7,N
1577056035.1,286046997.4,N
1577056055.9,286046999.2,N
1577056075.7,286046997.3,N
1577056095.5,286046997.2,N
1577056115.4,286046995.2,N
1577056135.2,286046995.0,N
1577056155.0,286046995.3,N
1577056155.9,286046995.3,N
1577056175.8,286046995.7,N
1577056195.6,286046994.9,N
1577056215.5,286046997.6,N
1577056235.3,286046995.0,N
1577056255.1,286046995.9,N
1577056275.9,286046995.9,N
1577056295.7,286046997.7,N
1577056315.5,286047001.1,N
1577056335.4,286046998.2,N
1577056355.2,286047002.4,N
1577056375.1,286047006.0,N
1577056376.0,286047006.0,N
1577056395.8,286047003.8,N
1577056415.6,286047001.9,N
1577056435.5,286047002.1,N
1577056455.3,286047001.6,N
1577056475.1,286047003.1,N
1577056495.9,286047005.1,N
1577056515.7,286047005.8,N
1577056535.6,286047003.4,N
1577056555.4,286047002.1,N
1577056575.2,286047002.3,N
1577056595.1,286047000.1,N
1577056596.0,286047000.1,N
1577056615.8,286046998.2,N
1577056635.7,286047000.6,N
1577056655.5,286047004.3,N
1577056675.3,286047007.0,N
1577056695.2,286047006.9,N
1577056715.9,286047007.2,N
1577056735.7,286047005.8,N
1577056755.6,286047003.3,N
1577056775.4,286047005.2,N
1577056795.3,286047005.8,N
1577056815.1,286047001.3,N
1577056816.0,286047001.3,N
1577056835.8,286047000.1,N
1577056855.7,286047001.0,N
1577056875.5,286047001.1,N
1577056895.3,286047000.0,N
1577056915.2,286046999.8,N
1577056935.0,286047000.3,N
1577056935.9,286047000.3,N
1577056955.8,286047001.6,N
1577056975.6,286046999.9,N
1577056995.4,286047000.0,N
1577057015.3,286046998.2,N
1577057035.1,286046999.2,N
1577057055.9,286046999.5,N
1577057075.7,286046996.9,N
1577057095.5,286046999.4,N
1577057115.4,286046997.3,N
1577057135.2,286046998.3,N
1577057155.0,286047000.2,N
1577057155.9,286047000.2,N
1577057175.8,286046998.4,N
1577057195.6,286047000.7,N
1577057215.5,286047001.0,N
1577057235.3,286046998.4,N
1577057255.1,286047000.6,N
1577057275.9,286047000.1,N
1577057295.7,286047001.2,N
1577057315.5,286047002.6,N
1577057335.4,286047001.1,N
1577057355.2,286046998.4,N
1577057375.1,286046998.6,N
1577057376.0,286046998.6,N
1577057395.8,286046998.8,N
1577057415.6,286047000.8,N
1577057435.5,286046996.9,N
1577057455.3,286046998.9,N
1577057475.2,286046999.3,N
1577057495.9,286046996.8,N
1577057515.7,286046999.2,N
1577057535.6,286046999.5,N
1577057555.4,286046996.6,N
1577057575.2,286046996.5,N
1577057595.1,286046996.6,N
1577057596.0,286046996.6,N
1577057615.8,286046997.5,N
1577057635.7,286046997.2,N
1577057655.5,286046999.1,N
1577057675.3,286047000.8,N
1577057695.2,286047000.2,N
1577057715.0,286047002.2,N
1577057715.9,286047002.2,N
1577057735.8,286047002.4,N
1577057755.6,286047004.4,N
1577057775.4,286047005.2,N
1577057795.3,286047005.9,N
1577057815.1,286047003.2,N
1577057835.8,286047004.3,N
1577057855.7,286047002.1,N
1577057875.5,286047000.4,N
1577057895.4,286046998.5,N
1577057915.2,286046998.7,N
1577057935.0,286046996.5,N
1577057935.9,286046996.5,N
1577057955.8,286046999.1,N
1577057975.6,286046999.1,N
1577057995.4,286046998.3,N
1577058015.3,286046999.3,N
1577058035.1,286046998.9,N
1577058055.9,286046998.4,N
1577058075.7,286047000.9,N
1577058095.5,286047000.9,N
1577058115.4,286047001.1,N
1577058135.2,286046998.3,N
1577058155.0,286046998.6,N
1577058156.0,286046998.6,N
1577058175.8,286046996.9,N
1577058195.6,286046996.9,N
1577058215.5,286046997.1,N
1577058235.3,286046997.4,N
1577058255.1,286046995.2,N
1577058275.9,286046997.6,N
1577058295.7,286046998.9,N
1577058315.6,286046998.8,N
1577058335.4,286046999.2,N
1577058355.2,286046998.7,N
1577058375.1,286046996.8,N
1577058376.0,286046996.8,N
1577058395.8,286046995.3,Y
1577058415.6,286046999.3,P
1577058435.5,286046998.4,P
1577058455.3,286046997.0,P
1577058475.2,286046998.3,N
1577058495.9,286046996.5,Y
1577058515.7,286046999.2,P
1577058535.6,286046998.3,P
1577058555.4,286046998.5,P
1577058575.3,286046998.3,Y
1577058595.1,286047002.6,P
1577058596.0,286047002.6,N
1577058615.8,286047004.3,N
1577058635.7,286047001.9,N
1577058655.5,286047003.9,N
1577058675.3,286047005.4,N
1577058695.2,286047005.3,N
1577058715.0,286047006.7,Y
1577058715.9,286047006.7,P
1577058735.8,286047004.5,N
1577058755.6,286047003.1,N
1577058775.4,286047001.7,N
1577058795.3,286047001.5,N
1577058815.1,286047002.1,N
1577058835.8,286046999.7,N
1577058855.7,286047003.6,N
1577058875.5,286047002.0,N
1577058895.4,286046999.8,N
1577058915.2,286047001.4,N
1577058935.0,286047005.6,N
1577058935.9,286047005.6,N
1577058955.8,286047004.2,N
1577058975.6,286047007.2,Y
1577058995.5,286047003.1,P
1577059015.3,286047002.8,P
1577059035.1,286047000.4,P
1577059055.9,286047002.3,N
1577059075.7,286046999.9,N
1577059095.5,286047001.3,N
1577059115.4,286047002.8,N
1577059135.2,286047000.5,N
1577059155.1,286047002.7,N
1577059156.0,286047002.7,N
1577059175.8,286047000.8,N
1577059195.6,286047000.3,N
